Back to catalog

ANTELSAT

AliveAmateur RadioSSO
NORAD 40034·PAYLOAD·🇺🇾 Uruguay

Launched Jun 19, 2014 from Dombarovsky

Loading…

Next Passes (next 24 hours)

TLE

FreshSource: Space-Track

Epoch: Sep 14, 2026, 09:10 UTC

1 40034U 14033AA  26257.38241654  .00003406  00000-0  34061-3 0  9997
2 40034  97.7897  51.9308 0044063 120.2451 240.3140 14.91388389659107

Track ANTELSAT in real time with AllMySat

Download on the App Store